Location: Clarion
(42.7316°N, 93.7330°W)
Time: 22:14:45
(UTC+00:00)

METEOR-M - Pass Details

Date: 22 April 2026
Orbit: 812 x 817 km, 98.7° (Epoch: 12 May)

Event Time Altitude Azimuth Distance (km) Brightness Sun altitude
Rises 09:56:12 0° 10° (N) 3,345 8.0 -15.1°
Reaches altitude 10° 09:58:34 10° 8° (N) 2,409 7.1 -14.7°
Maximum altitude 10:03:50 65° 288° (WNW) 896 4.2 -13.9°
Enters shadow 10:08:23 14° 209° (SSW) 2,131 5.8 -13.2°
